Tracking 19817 objects as of 18-Aug-2019
HD Live streaming from Space Station
objects crossing your sky now

COSMOS 1806

Track COSMOS 1806 now!
COSMOS 1806 is classified as:


NORAD ID: 17213
Int'l Code: 1986-098A
Perigee: 5,737.1 km
Apogee: 34,655.5 km
Inclination: 68.6 °
Period: 718.3 minutes
Semi major axis: 26567 km
RCS: 14.9345 m2 (large)
Launch date: December 12, 1986
Source: Commonwealth of Independent States (former USSR) (CIS)
Launch site: PLESETSK MISSILE AND SPACE COMPLEX (PKMTR)
aabbcc
Your satellite tracking list
Your tracking list is empty




NASA's NSSDC Master Catalog

Two Line Element Set (TLE):
1 17213U 86098A   19227.45837572 -.00000577 +00000-0 +00000-0 0  9997
2 17213 068.6156 251.1430 5442476 138.6865 003.9317 02.00484948239212
Source of the keplerian elements: AFSPC